Miscellaneous Local Product
Issued by NWS North Platte, NE

Home | Current Version | Previous Version | Text Only | Print | Product List | Glossary On
Versions: 1 2 3 4 5 6 7 8 9 10 11 12 13 14 15 16 17 18 19 20 21 22 23 24 25 26 27 28 29 30 31 32 33 34 35 36 37 38 39 40 41 42 43 44 45 46 47 48 49 50
617
AXUS43 KLBF 211810
MISLBF


WESTERN AND NORTH CENTRAL NEBRASKA HOURLY WEATHER ROUNDUP
NATIONAL WEATHER SERVICE NORTH PLATTE NE
100 PM CDT SUN MAY 21 2017

NOTE: "FAIR" INDICATES FEW OR NO CLOUDS BELOW 12,000 FEET WITH NO
SIGNIFICANT WEATHER AND/OR OBSTRUCTIONS TO VISIBILITY.

NOTE: STATIONS NOT REPORTING VARIABLES SUCH AS SKY/WEATHER OR
PRESSURE ARE PROVIDED BY RAWS AND APRS NETWORKS AND ARE NOT UNDER
NATIONAL WEATHER SERVICE QUALITY CONTROL.

...OBSERVATIONS IN AND NEAR THE EASTERN PANHANDLE OF NEBRASKA...

CITY           SKY/WX    TMP DP  RH WIND       PRES   REMARKS
PINE RIDGE     MOSUNNY   64  38  38 NW7       30.12S
GORDON         FAIR      61  37  40 NW13      30.13S
CHADRON        CLOUDY    59  40  49 NW9       30.13S
ALLIANCE       MOSUNNY   63  39  41 NW10      30.13F
SIDNEY         MOSUNNY   63  37  38 N7        30.18F
CRESCENT LAKE    N/A     63  36  36 N10G20      N/A
$$

...OBSERVATIONS IN NORTHERN NEBRASKA AND FAR SOUTHERN SOUTH DAKOTA...

CITY           SKY/WX    TMP DP  RH WIND       PRES   REMARKS
WINNER         FAIR      61  41  47 NW10G18   30.09S
VALENTINE      SUNNY     66  32  28 NW13G25   30.09S
THEDFORD       SUNNY     62  39  43 NW9       30.13F
AINSWORTH      SUNNY     61  35  37 NW14G20   30.10S
O`NEILL        SUNNY     58  39  48 NW18G24   30.10S
ORD            SUNNY     62  39  42 NW10      30.10F
BROKEN BOW     SUNNY     63  40  42 W16       30.12S
VALENTINE NWR    N/A     59  36  41 NW12        N/A
HALSEY           N/A     59  38  45 W6G13       N/A
BUTTE            N/A     56  41  58 N16         N/A
CHAMBERS         N/A     60  40  48 N3          N/A
EWING            N/A     58  44  59 NW13G20     N/A
$$

...OBSERVATIONS IN SOUTHWEST NEBRASKA AND FAR NORTHEAST COLORADO...

CITY           SKY/WX    TMP DP  RH WIND       PRES   REMARKS
WRAY           FAIR      66  37  34 CALM      30.18S
IMPERIAL       MOSUNNY   64  39  39 N14       30.16F
OGALLALA       MOSUNNY   66  41  39 NW12G17   30.16S
NORTH PLATTE   SUNNY     66  41  40 W10G21    30.14F
MCCOOK         SUNNY     68  45  43 W15       30.15F
LEXINGTON      SUNNY     64  40  40 NW12G21   30.14F
STAPLETON        N/A     65  40  39 CALM        N/A
GOTHENBURG       N/A     62  32  32 NW8         N/A
CALLAWAY         N/A     61  44  53 NW12        N/A
$$

...OBSERVATIONS IN CENTRAL LINCOLN COUNTY AREA...

CITY           SKY/WX    TMP DP  RH WIND       PRES   REMARKS
N.P. AIRPORT   SUNNY     66  41  40 W10G21    30.14F
N.P. DOWNTOWN    N/A     64  37  37 W7          N/A
N.P. SOUTHEAST   N/A     65  36  33 NW6         N/A
N.P. HILLCREST   N/A     63  35  35 W9          N/A
$$

...SOME OBSERVATIONS FROM AROUND THE REGION...

CITY           SKY/WX    TMP DP  RH WIND       PRES   REMARKS
DENVER         MOSUNNY   61  33  35 E9        30.20F
LIMON          PTSUNNY   60  35  39 VRB3      30.20F
ASPEN          CLOUDY    57  25  29 NW3G18    30.25F
LARAMIE        CLOUDY    45  38  76 N16G22    30.25R
CASPER         LGT RAIN  48  37  65 NW7G30    30.22R
CHEYENNE       CLOUDY    52  35  52 N8        30.22F
SCOTTSBLUFF    CLOUDY    64  40  41 W10       30.15F
GRAND ISLAND   SUNNY     63  42  46 NW7       30.13F
OMAHA          PTSUNNY   59  41  51 NW18G25   30.08F
SIOUX FALLS    CLOUDY    49  41  74 W18G26    30.01R
PIERRE         SUNNY     60  34  37 W8        30.05S
RAPID CITY     MOSUNNY   64  34  32 NW14G21   30.09S
BISMARCK       SUNNY     64  35  34 W10       29.98F
KANSAS CITY    MOSUNNY   63  43  48 NW13G21   30.14F
HILL CITY      SUNNY     71  44  37 W12       30.16F
WICHITA        MOSUNNY   70  48  45 W12       30.17F
DODGE CITY     CLOUDY    62  49  62 SW8       30.20F
OKLAHOMA CITY  MOSUNNY   69  44  40 VRB3      30.20F
DALLAS         PTSUNNY   78  49  35 E10       30.14F
AMARILLO       SUNNY     72  43  35 S17G25    30.19F
$$




USA.gov is the U.S. government's official web portal to all federal, state and local government web resources and services.